BCS3197 ESSA-EDDP

Flight info

Callsign BCS3197
Flight time 1h 30m
Altitude 34000
Route NOSLI N850 ABAMA DCT SALLO DCT SUVAL/N0446F350 M736 MAG/N0447F300 Z20 KENIG/N0425F230 T959 KOJEC KOJEC1R
Aircraft A306/H-SDE1FGHIRWXYZ/HB1

Departure

Time 2026-05-07 17:02
Airport Stockholm-Arlanda Airport (ESSA)

Arrival

Time 2026-05-07 18:33
Airport Leipzig/Halle Airport (EDDP)
Time Latitude Longitude Altitude Speed Heading
2026-05-07 15:59 59.63914 17.92923 0 ft 0 kts 207°
2026-05-07 16:45 59.63934 17.92944 117 ft 4 kts 207°
2026-05-07 16:45 59.63953 17.92963 113 ft 4 kts 216°
2026-05-07 16:45 59.63968 17.92997 112 ft 4 kts 265°
2026-05-07 16:46 59.63964 17.93044 112 ft 4 kts 297°
2026-05-07 16:46 59.63952 17.93089 113 ft 4 kts 297°
2026-05-07 16:46 59.63948 17.93104 112 ft 1 kts 297°
2026-05-07 16:52 59.63951 17.93093 113 ft 3 kts 297°
2026-05-07 16:52 59.63966 17.93035 114 ft 5 kts 297°
2026-05-07 16:52 59.63984 17.93006 112 ft 2 kts 342°
2026-05-07 16:53 59.64005 17.93015 114 ft 6 kts 20°
2026-05-07 16:53 59.64053 17.93025 114 ft 7 kts 342°
2026-05-07 16:53 59.64080 17.92953 117 ft 6 kts 293°
2026-05-07 16:53 59.64098 17.92877 115 ft 6 kts 294°
2026-05-07 16:54 59.64123 17.92778 116 ft 12 kts 297°
2026-05-07 16:54 59.64173 17.92589 117 ft 16 kts 297°
2026-05-07 16:54 59.64220 17.92408 121 ft 14 kts 297°
2026-05-07 16:54 59.64261 17.92257 121 ft 12 kts 299°
2026-05-07 16:55 59.64302 17.92104 118 ft 13 kts 298°
2026-05-07 16:55 59.64339 17.91968 115 ft 9 kts 299°
2026-05-07 16:55 59.64385 17.91922 114 ft 9 kts
2026-05-07 16:55 59.64469 17.91951 115 ft 16 kts
2026-05-07 16:56 59.64595 17.91999 115 ft 21 kts 10°
2026-05-07 16:56 59.64738 17.92050 113 ft 21 kts 11°
2026-05-07 16:56 59.65015 17.92150 111 ft 19 kts 11°
2026-05-07 16:57 59.65142 17.92200 111 ft 18 kts
2026-05-07 16:57 59.65263 17.92239 112 ft 17 kts
2026-05-07 16:57 59.65385 17.92283 111 ft 18 kts 10°
2026-05-07 16:57 59.65504 17.92327 111 ft 17 kts 11°
2026-05-07 16:58 59.65618 17.92368 111 ft 16 kts 11°
2026-05-07 16:58 59.65728 17.92409 110 ft 17 kts
2026-05-07 16:58 59.65863 17.92457 113 ft 22 kts 10°
2026-05-07 16:58 59.66017 17.92513 113 ft 22 kts 11°
2026-05-07 16:59 59.66156 17.92562 115 ft 19 kts 10°
2026-05-07 16:59 59.66276 17.92606 122 ft 16 kts 11°
2026-05-07 16:59 59.66370 17.92640 123 ft 12 kts 10°
2026-05-07 16:59 59.66439 17.92658 123 ft 8 kts
2026-05-07 17:00 59.66488 17.92643 125 ft 6 kts 340°
2026-05-07 17:00 59.66549 17.92596 127 ft 13 kts 339°
2026-05-07 17:00 59.66611 17.92525 128 ft 9 kts 307°
2026-05-07 17:00 59.66622 17.92407 130 ft 7 kts 270°
2026-05-07 17:01 59.66598 17.92358 130 ft 5 kts 193°
2026-05-07 17:01 59.66588 17.92355 125 ft 0 kts 187°
2026-05-07 17:01 59.66587 17.92355 126 ft 2 kts 187°
2026-05-07 17:01 59.66530 17.92339 129 ft 19 kts 189°
2026-05-07 17:02 59.66137 17.92195 122 ft 96 kts 190°
2026-05-07 17:02 59.65249 17.91880 110 ft 162 kts 190°
2026-05-07 17:02 59.63985 17.91382 477 ft 197 kts 186°
2026-05-07 17:02 59.62591 17.91324 1544 ft 209 kts 178°
2026-05-07 17:03 59.61064 17.91026 2054 ft 231 kts 201°
2026-05-07 17:03 59.59934 17.88884 3155 ft 228 kts 241°
2026-05-07 17:03 59.59339 17.86018 4436 ft 224 kts 248°
2026-05-07 17:03 59.58775 17.83188 5569 ft 226 kts 248°
2026-05-07 17:04 59.58167 17.80242 6586 ft 236 kts 248°
2026-05-07 17:04 59.57468 17.77207 7248 ft 255 kts 244°
2026-05-07 17:04 59.56430 17.74249 8191 ft 264 kts 227°
2026-05-07 17:04 59.54937 17.72083 9236 ft 270 kts 212°
2026-05-07 17:05 59.53287 17.70268 10207 ft 274 kts 217°
2026-05-07 17:05 59.51659 17.68065 10715 ft 294 kts 217°
2026-05-07 17:05 59.49921 17.65677 11093 ft 315 kts 218°
2026-05-07 17:05 59.48113 17.63009 11460 ft 334 kts 219°
2026-05-07 17:06 59.46216 17.60192 11916 ft 348 kts 219°
2026-05-07 17:06 59.44260 17.57323 12600 ft 354 kts 219°
2026-05-07 17:06 59.42276 17.54437 13373 ft 357 kts 218°
2026-05-07 17:06 59.40262 17.51523 14118 ft 360 kts 218°
2026-05-07 17:07 59.38239 17.48603 14806 ft 363 kts 218°
2026-05-07 17:07 59.38135 17.48453 14834 ft 363 kts 218°
2026-05-07 17:07 59.36684 17.46362 15354 ft 365 kts 219°
2026-05-07 17:08 59.34604 17.43370 16072 ft 367 kts 219°
2026-05-07 17:08 59.32565 17.40439 16772 ft 370 kts 219°
2026-05-07 17:08 59.30487 17.37452 17492 ft 372 kts 219°
2026-05-07 17:08 59.28391 17.34445 18198 ft 375 kts 219°
2026-05-07 17:09 59.26281 17.31422 18827 ft 377 kts 219°
2026-05-07 17:09 59.24159 17.28387 19434 ft 379 kts 219°
2026-05-07 17:09 59.22030 17.25348 20049 ft 380 kts 219°
2026-05-07 17:09 59.19892 17.22300 20654 ft 381 kts 219°
2026-05-07 17:10 59.17744 17.19242 21214 ft 383 kts 220°
2026-05-07 17:10 59.15588 17.16176 21785 ft 385 kts 220°
2026-05-07 17:10 59.13413 17.13092 22339 ft 387 kts 220°
2026-05-07 17:10 59.11229 17.09997 22899 ft 389 kts 220°
2026-05-07 17:11 59.09744 17.07896 23268 ft 391 kts 220°
2026-05-07 17:11 59.07539 17.04780 23766 ft 393 kts 220°
2026-05-07 17:11 59.05322 17.01652 24170 ft 395 kts 220°
2026-05-07 17:11 59.03117 16.98549 24599 ft 397 kts 219°
2026-05-07 17:12 59.00880 16.95405 25022 ft 398 kts 219°
2026-05-07 17:12 58.98627 16.92242 25420 ft 400 kts 219°
2026-05-07 17:12 58.96369 16.89080 25802 ft 402 kts 219°
2026-05-07 17:12 58.94068 16.85863 26212 ft 403 kts 219°
2026-05-07 17:13 58.91817 16.82719 26579 ft 405 kts 219°
2026-05-07 17:13 58.89524 16.79521 26923 ft 407 kts 219°
2026-05-07 17:13 58.87220 16.76315 27277 ft 409 kts 219°
2026-05-07 17:13 58.84909 16.73105 27637 ft 410 kts 219°
2026-05-07 17:14 58.82586 16.69881 27954 ft 412 kts 218°
2026-05-07 17:14 58.80249 16.66644 28265 ft 414 kts 218°
2026-05-07 17:14 58.77904 16.63400 28558 ft 416 kts 218°
2026-05-07 17:14 58.75547 16.60146 28871 ft 417 kts 218°
2026-05-07 17:15 58.73192 16.56903 29328 ft 415 kts 218°
2026-05-07 17:15 58.70841 16.53671 29755 ft 414 kts 218°
2026-05-07 17:15 58.68504 16.50465 30217 ft 412 kts 218°
2026-05-07 17:15 58.66175 16.47273 30583 ft 411 kts 218°
2026-05-07 17:16 58.63848 16.44088 30905 ft 411 kts 218°
2026-05-07 17:16 58.61517 16.40901 31181 ft 412 kts 218°
2026-05-07 17:16 58.59181 16.37713 31505 ft 412 kts 218°
2026-05-07 17:16 58.56850 16.34537 31853 ft 411 kts 218°
2026-05-07 17:17 58.54517 16.31366 32189 ft 411 kts 218°
2026-05-07 17:17 58.52187 16.28202 32483 ft 411 kts 218°
2026-05-07 17:17 58.49818 16.24993 32833 ft 411 kts 218°
2026-05-07 17:17 58.47517 16.21881 33173 ft 410 kts 218°
2026-05-07 17:18 58.45188 16.18736 33456 ft 410 kts 218°
2026-05-07 17:18 58.42857 16.15593 33726 ft 411 kts 218°
2026-05-07 17:18 58.40519 16.12445 34003 ft 411 kts 218°
2026-05-07 17:18 58.38185 16.09308 34088 ft 411 kts 218°
2026-05-07 17:19 58.33605 16.03180 34076 ft 386 kts 218°
2026-05-07 17:19 58.29243 15.97356 34081 ft 388 kts 218°
2026-05-07 17:20 58.24749 15.91347 34080 ft 402 kts 218°
2026-05-07 17:20 58.20110 15.85175 34081 ft 414 kts 217°
2026-05-07 17:21 58.15351 15.78880 34082 ft 418 kts 217°
2026-05-07 17:21 58.10574 15.72585 34082 ft 419 kts 217°
2026-05-07 17:22 58.05777 15.66283 34089 ft 421 kts 217°
2026-05-07 17:22 58.00966 15.59981 34092 ft 421 kts 217°
2026-05-07 17:23 57.95772 15.54743 34086 ft 426 kts 207°
2026-05-07 17:23 57.90297 15.50373 34082 ft 428 kts 205°
2026-05-07 17:24 57.84770 15.46168 34083 ft 429 kts 205°
2026-05-07 17:24 57.79233 15.41959 34085 ft 430 kts 205°
2026-05-07 17:25 57.73697 15.37732 34080 ft 431 kts 205°
2026-05-07 17:25 57.68141 15.33487 34079 ft 431 kts 205°
2026-05-07 17:26 57.62583 15.29257 34074 ft 432 kts 205°
2026-05-07 17:26 57.56999 15.25019 34075 ft 433 kts 205°
2026-05-07 17:27 57.51411 15.20794 34074 ft 434 kts 205°
2026-05-07 17:27 57.45804 15.16568 34067 ft 435 kts 205°
2026-05-07 17:28 57.40188 15.12351 34070 ft 436 kts 204°
2026-05-07 17:28 57.34558 15.08137 34068 ft 437 kts 204°
2026-05-07 17:29 57.28917 15.03929 34063 ft 438 kts 204°
2026-05-07 17:29 57.23255 14.99719 34065 ft 439 kts 204°
2026-05-07 17:30 57.17590 14.95520 34062 ft 439 kts 204°
2026-05-07 17:30 57.11913 14.91326 34061 ft 440 kts 204°
2026-05-07 17:31 57.06218 14.87132 34060 ft 441 kts 203°
2026-05-07 17:31 57.00518 14.82948 34064 ft 442 kts 203°
2026-05-07 17:32 56.94808 14.78771 34064 ft 442 kts 203°
2026-05-07 17:32 56.89086 14.74601 34064 ft 443 kts 203°
2026-05-07 17:33 56.83351 14.70433 34061 ft 444 kts 203°
2026-05-07 17:33 56.77607 14.66275 34075 ft 444 kts 203°
2026-05-07 17:34 56.71857 14.62125 34070 ft 445 kts 202°
2026-05-07 17:34 56.66086 14.57974 34072 ft 446 kts 202°
2026-05-07 17:35 56.60312 14.53834 34087 ft 447 kts 202°
2026-05-07 17:35 56.54527 14.49700 34076 ft 447 kts 202°
2026-05-07 17:36 56.48732 14.45572 34089 ft 448 kts 202°
2026-05-07 17:36 56.42919 14.41445 34087 ft 449 kts 202°
2026-05-07 17:37 56.37098 14.37326 34092 ft 450 kts 202°
2026-05-07 17:37 56.31269 14.33215 34097 ft 450 kts 202°
2026-05-07 17:38 56.25437 14.29107 34099 ft 451 kts 201°
2026-05-07 17:38 56.19817 14.25215 34096 ft 451 kts 202°
2026-05-07 17:39 56.13988 14.21030 34093 ft 452 kts 202°
2026-05-07 17:39 56.08141 14.16903 34095 ft 452 kts 201°
2026-05-07 17:40 56.02271 14.12828 34092 ft 453 kts 201°
2026-05-07 17:40 55.96396 14.08742 34094 ft 454 kts 201°
2026-05-07 17:41 55.90493 14.04698 34089 ft 455 kts 201°
2026-05-07 17:41 55.84563 14.00699 34089 ft 456 kts 201°
2026-05-07 17:42 55.78616 13.96672 34094 ft 458 kts 201°
2026-05-07 17:42 55.72671 13.92624 34095 ft 458 kts 201°
2026-05-07 17:43 55.66718 13.88572 34102 ft 459 kts 201°
2026-05-07 17:43 55.60784 13.84545 34102 ft 459 kts 201°
2026-05-07 17:44 55.54810 13.80505 34101 ft 461 kts 201°
2026-05-07 17:44 55.48911 13.76531 34087 ft 467 kts 201°
2026-05-07 17:45 55.42817 13.72438 34080 ft 470 kts 201°
2026-05-07 17:45 55.36709 13.68350 34083 ft 469 kts 200°
2026-05-07 17:46 55.30608 13.64279 34069 ft 469 kts 200°
2026-05-07 17:46 55.24515 13.60227 34072 ft 468 kts 200°
2026-05-07 17:47 55.18429 13.56194 34071 ft 468 kts 200°
2026-05-07 17:47 55.12345 13.52174 34070 ft 467 kts 200°
2026-05-07 17:48 55.06271 13.48175 34073 ft 467 kts 200°
2026-05-07 17:48 55.00197 13.44188 34075 ft 466 kts 200°
2026-05-07 17:49 54.94139 13.40224 34072 ft 463 kts 200°
2026-05-07 17:49 54.88189 13.36269 34079 ft 454 kts 201°
2026-05-07 17:50 54.82323 13.32239 34079 ft 453 kts 201°
2026-05-07 17:50 54.76426 13.28374 34068 ft 453 kts 200°
2026-05-07 17:51 54.70493 13.24710 34077 ft 452 kts 199°
2026-05-07 17:51 54.64573 13.21055 34077 ft 452 kts 200°
2026-05-07 17:52 54.58656 13.17375 34078 ft 452 kts 200°
2026-05-07 17:52 54.52739 13.13689 34080 ft 452 kts 200°
2026-05-07 17:53 54.46811 13.10006 34079 ft 453 kts 200°
2026-05-07 17:53 54.40883 13.06336 34078 ft 453 kts 200°
2026-05-07 17:54 54.35957 13.03295 34080 ft 452 kts 200°
2026-05-07 17:54 54.29993 12.99625 34082 ft 452 kts 199°
2026-05-07 17:55 54.24114 12.96017 34084 ft 452 kts 200°
2026-05-07 17:55 54.18192 12.92395 34084 ft 452 kts 199°
2026-05-07 17:56 54.12269 12.88782 34085 ft 452 kts 199°
2026-05-07 17:56 54.06353 12.85186 34080 ft 451 kts 199°
2026-05-07 17:57 54.00437 12.81600 34082 ft 451 kts 199°
2026-05-07 17:57 53.94484 12.78003 34084 ft 451 kts 199°
2026-05-07 17:58 53.88748 12.74547 34084 ft 450 kts 199°
2026-05-07 17:58 53.82844 12.71000 34080 ft 450 kts 199°
2026-05-07 17:59 53.76983 12.67490 34086 ft 450 kts 199°
2026-05-07 17:59 53.71084 12.63968 34077 ft 449 kts 199°
2026-05-07 18:00 53.65152 12.60435 34090 ft 449 kts 199°
2026-05-07 18:00 53.59259 12.56937 34080 ft 449 kts 199°
2026-05-07 18:01 53.53361 12.53447 34082 ft 449 kts 199°
2026-05-07 18:01 53.47471 12.49971 34083 ft 448 kts 199°
2026-05-07 18:02 53.38648 12.44783 34076 ft 448 kts 199°
2026-05-07 18:03 53.32772 12.41340 34079 ft 447 kts 199°
2026-05-07 18:03 53.26896 12.37909 34085 ft 448 kts 199°
2026-05-07 18:04 53.21017 12.34485 34077 ft 447 kts 199°
2026-05-07 18:04 53.15133 12.31069 34072 ft 447 kts 199°
2026-05-07 18:05 53.09258 12.27667 34071 ft 447 kts 199°
2026-05-07 18:05 53.03382 12.24275 34074 ft 447 kts 199°
2026-05-07 18:05 53.00453 12.22588 33951 ft 440 kts 199°
2026-05-07 18:06 52.97587 12.20939 33640 ft 433 kts 199°
2026-05-07 18:06 52.94753 12.19312 33065 ft 430 kts 199°
2026-05-07 18:06 52.91940 12.17698 32499 ft 426 kts 199°
2026-05-07 18:06 52.89155 12.16104 31946 ft 422 kts 199°
2026-05-07 18:07 52.86389 12.14521 31408 ft 418 kts 199°
2026-05-07 18:07 52.83650 12.12956 30873 ft 415 kts 199°
2026-05-07 18:07 52.80935 12.11407 30353 ft 412 kts 199°
2026-05-07 18:07 52.78241 12.09872 29776 ft 408 kts 199°
2026-05-07 18:08 52.75556 12.08344 29177 ft 407 kts 199°
2026-05-07 18:08 52.72884 12.06826 28594 ft 407 kts 199°
2026-05-07 18:08 52.70202 12.05304 28013 ft 405 kts 199°
2026-05-07 18:08 52.67547 12.03800 27448 ft 403 kts 199°
2026-05-07 18:09 52.64903 12.02304 26895 ft 400 kts 199°
2026-05-07 18:09 52.62278 12.00819 26350 ft 398 kts 199°
2026-05-07 18:09 52.59659 11.99340 25818 ft 396 kts 199°
2026-05-07 18:09 52.57066 11.97878 25298 ft 395 kts 199°
2026-05-07 18:10 52.54467 11.96414 24780 ft 393 kts 199°
2026-05-07 18:10 52.51886 11.94962 24278 ft 392 kts 199°
2026-05-07 18:10 52.49310 11.93515 23781 ft 391 kts 199°
2026-05-07 18:10 52.46747 11.92072 23223 ft 389 kts 200°
2026-05-07 18:11 52.44190 11.90633 22651 ft 387 kts 200°
2026-05-07 18:11 52.42511 11.89670 22272 ft 386 kts 200°
2026-05-07 18:11 52.39127 11.87771 21528 ft 383 kts 200°
2026-05-07 18:11 52.36615 11.86378 20989 ft 380 kts 200°
2026-05-07 18:12 52.34115 11.84996 20449 ft 378 kts 200°
2026-05-07 18:12 52.31631 11.83621 19927 ft 375 kts 200°
2026-05-07 18:12 52.29166 11.82255 19407 ft 373 kts 200°
2026-05-07 18:12 52.26717 11.80897 18905 ft 370 kts 200°
2026-05-07 18:13 52.24287 11.79548 18401 ft 368 kts 200°
2026-05-07 18:13 52.21873 11.78210 17841 ft 365 kts 199°
2026-05-07 18:13 52.19475 11.76887 17272 ft 362 kts 199°
2026-05-07 18:13 52.17097 11.75572 16724 ft 360 kts 199°
2026-05-07 18:14 52.14691 11.74546 16165 ft 358 kts 186°
2026-05-07 18:14 52.12218 11.74800 15643 ft 356 kts 168°
2026-05-07 18:14 52.09829 11.75780 15121 ft 353 kts 165°
2026-05-07 18:14 52.07463 11.76818 14611 ft 351 kts 164°
2026-05-07 18:15 52.05126 11.77834 14259 ft 344 kts 164°
2026-05-07 18:15 52.02841 11.78819 14009 ft 334 kts 164°
2026-05-07 18:15 52.00624 11.79770 13745 ft 326 kts 164°
2026-05-07 18:15 51.98451 11.80694 13467 ft 321 kts 165°
2026-05-07 18:16 51.96299 11.81605 13207 ft 320 kts 164°
2026-05-07 18:16 51.94148 11.82516 12921 ft 319 kts 164°
2026-05-07 18:16 51.92010 11.83415 12525 ft 317 kts 164°
2026-05-07 18:16 51.89879 11.84307 12110 ft 314 kts 164°
2026-05-07 18:17 51.87772 11.85182 11700 ft 311 kts 164°
2026-05-07 18:17 51.85682 11.86043 11294 ft 309 kts 164°
2026-05-07 18:17 51.83605 11.86894 10901 ft 306 kts 164°
2026-05-07 18:17 51.81550 11.87730 10508 ft 304 kts 164°
2026-05-07 18:18 51.79505 11.88558 10175 ft 300 kts 164°
2026-05-07 18:18 51.77510 11.89353 10096 ft 293 kts 164°
2026-05-07 18:18 51.75554 11.90128 10083 ft 286 kts 164°
2026-05-07 18:18 51.73638 11.90890 10086 ft 283 kts 164°
2026-05-07 18:19 51.71726 11.91651 10090 ft 283 kts 164°
2026-05-07 18:19 51.69817 11.92412 10089 ft 283 kts 165°
2026-05-07 18:19 51.67909 11.93180 10086 ft 283 kts 165°
2026-05-07 18:19 51.65995 11.93957 10087 ft 283 kts 164°
2026-05-07 18:20 51.64087 11.94737 9862 ft 284 kts 165°
2026-05-07 18:20 51.62168 11.95391 9486 ft 283 kts 175°
2026-05-07 18:20 51.60244 11.94910 9128 ft 281 kts 202°
2026-05-07 18:20 51.58608 11.93241 8765 ft 279 kts 221°
2026-05-07 18:21 51.57186 11.91132 8424 ft 276 kts 224°
2026-05-07 18:21 51.55690 11.89218 8040 ft 276 kts 208°
2026-05-07 18:21 51.53863 11.88404 7686 ft 273 kts 182°
2026-05-07 18:21 51.51972 11.88488 7382 ft 271 kts 175°
2026-05-07 18:22 51.50099 11.88726 7054 ft 270 kts 174°
2026-05-07 18:22 51.48863 11.88892 6829 ft 269 kts 174°
2026-05-07 18:22 51.46381 11.89226 6390 ft 267 kts 174°
2026-05-07 18:22 51.44535 11.89476 6046 ft 265 kts 174°
2026-05-07 18:23 51.42702 11.89701 5685 ft 264 kts 175°
2026-05-07 18:23 51.40878 11.89950 5343 ft 262 kts 174°
2026-05-07 18:23 51.39067 11.90204 5024 ft 260 kts 174°
2026-05-07 18:23 51.37339 11.90958 4626 ft 258 kts 150°
2026-05-07 18:24 51.35932 11.92694 4314 ft 254 kts 136°
2026-05-07 18:24 51.34684 11.94610 4149 ft 244 kts 135°
2026-05-07 18:24 51.33482 11.96472 4016 ft 237 kts 136°
2026-05-07 18:24 51.32097 11.97821 3736 ft 236 kts 163°
2026-05-07 18:25 51.30476 11.97852 3438 ft 235 kts 196°
2026-05-07 18:25 51.29098 11.96533 3144 ft 233 kts 229°
2026-05-07 18:25 51.28409 11.94314 3002 ft 226 kts 263°
2026-05-07 18:25 51.28610 11.91883 2976 ft 212 kts 298°
2026-05-07 18:26 51.29581 11.90256 2985 ft 203 kts 334°
2026-05-07 18:26 51.30922 11.89643 3022 ft 201 kts 352°
2026-05-07 18:26 51.32306 11.89366 3015 ft 199 kts 354°
2026-05-07 18:26 51.33642 11.89133 2981 ft 188 kts 354°
2026-05-07 18:27 51.34906 11.88912 2981 ft 179 kts 354°
2026-05-07 18:27 51.36096 11.88930 2971 ft 162 kts 21°
2026-05-07 18:27 51.36981 11.89973 2997 ft 159 kts 48°
2026-05-07 18:27 51.37441 11.90886 2993 ft 158 kts 52°
2026-05-07 18:28 51.38250 11.92773 2989 ft 152 kts 56°
2026-05-07 18:28 51.38837 11.94161 3010 ft 156 kts 54°
2026-05-07 18:28 51.39474 11.95636 2996 ft 161 kts 56°
2026-05-07 18:28 51.39928 11.97251 2994 ft 162 kts 73°
2026-05-07 18:29 51.40123 11.99054 2992 ft 163 kts 83°
2026-05-07 18:29 51.40228 12.00828 2939 ft 163 kts 83°
2026-05-07 18:29 51.40318 12.02618 2724 ft 160 kts 84°
2026-05-07 18:29 51.40401 12.04388 2523 ft 158 kts 83°
2026-05-07 18:30 51.40483 12.06121 2274 ft 154 kts 84°
2026-05-07 18:30 51.40561 12.07791 2059 ft 149 kts 83°
2026-05-07 18:30 51.40637 12.09443 1855 ft 149 kts 84°
2026-05-07 18:30 51.40714 12.11096 1650 ft 149 kts 83°
2026-05-07 18:31 51.40797 12.12744 1443 ft 148 kts 84°
2026-05-07 18:31 51.40873 12.14390 1220 ft 148 kts 84°
2026-05-07 18:31 51.40949 12.16038 1012 ft 148 kts 83°
2026-05-07 18:31 51.41015 12.17682 829 ft 147 kts 83°
2026-05-07 18:32 51.41099 12.19325 622 ft 148 kts 83°
2026-05-07 18:32 51.41180 12.20969 465 ft 146 kts 83°
2026-05-07 18:32 51.41256 12.22466 468 ft 119 kts 86°
2026-05-07 18:32 51.41305 12.23518 473 ft 70 kts 85°
2026-05-07 18:33 51.41330 12.24030 480 ft 22 kts 84°
2026-05-07 18:33 51.41336 12.24159 482 ft 11 kts 87°
2026-05-07 18:33 51.41340 12.24274 482 ft 10 kts 86°
2026-05-07 18:33 51.41346 12.24408 482 ft 15 kts 85°
2026-05-07 18:34 51.41353 12.24549 483 ft 9 kts 87°
2026-05-07 18:34 51.41336 12.24626 476 ft 6 kts 139°
2026-05-07 18:34 51.41309 12.24636 479 ft 6 kts 178°
2026-05-07 18:34 51.41264 12.24622 475 ft 7 kts 194°
2026-05-07 18:35 51.41256 12.24619 474 ft 0 kts 194°
2026-05-07 18:36 51.41254 12.24618 474 ft 2 kts 194°
2026-05-07 18:36 51.41215 12.24602 477 ft 7 kts 194°
2026-05-07 18:37 51.41182 12.24589 478 ft 4 kts 194°
2026-05-07 18:37 51.41133 12.24578 477 ft 9 kts 182°
2026-05-07 18:37 51.41093 12.24538 471 ft 6 kts 257°
2026-05-07 18:37 51.41089 12.24450 477 ft 8 kts 265°
2026-05-07 18:38 51.41085 12.24373 474 ft 6 kts 265°
2026-05-07 18:38 51.41082 12.24312 477 ft 5 kts 265°
2026-05-07 18:38 51.41067 12.24232 471 ft 10 kts 225°
2026-05-07 18:38 51.40997 12.24220 473 ft 11 kts 174°
2026-05-07 18:39 51.40915 12.24231 469 ft 13 kts 175°
2026-05-07 18:39 51.40835 12.24241 469 ft 10 kts 175°
2026-05-07 18:39 51.40799 12.24245 466 ft 3 kts 175°
2026-05-07 18:39 51.40783 12.24262 470 ft 2 kts 128°
2026-05-07 18:40 51.40779 12.24289 469 ft 2 kts 97°
2026-05-07 18:40 51.40780 12.24318 469 ft 3 kts 86°
2026-05-07 18:40 51.40782 12.24340 469 ft 1 kts 82°
2026-05-07 18:40 51.40783 12.24355 469 ft 1 kts 83°
2026-05-07 18:41 51.40783 12.24356 469 ft 0 kts 83°